z/d,0,0,50,50,100,100,200,200,300,300,400,400,500,500,750,750,1000,1000,2000,2000,3000,3000,4000,4000,4700,4700
2016.08.20-01:00,.97,85.32,1.13,81.24,1.22,79.07,1.20,77.80,1.10,78.37,1.01,75.31,.98,74.06,.73,73.22,.51,83.75,.31,96.88,.15,78.37,.14,53.10,.02,90.00
2016.08.20-02:00,.90,89.70,1.09,83.43,1.19,79.28,1.18,76.36,1.08,76.69,1.00,73.92,.97,75.08,.73,76.29,.50,82.96,.28,100.05,.12,84.73,.11,49.69,.02,90.00
2016.08.20-03:00,.79,92.37,1.02,84.33,1.16,79.24,1.16,74.94,1.07,75.22,.99,73.01,.95,76.69,.71,80.15,.50,83.07,.26,103.72,.08,95.21,.08,43.19,.01,90.00
2016.08.20-04:00,.69,93.02,.96,84.39,1.13,79.32,1.16,73.99,1.07,74.13,1.00,72.57,.94,78.42,.69,83.96,.49,83.92,.24,107.26,.05,114.43,.05,33.04,.00,270.00
2016.08.20-05:00,.62,92.28,.92,84.25,1.13,79.84,1.18,73.86,1.09,73.61,1.02,72.66,.94,80.12,.66,87.10,.49,85.21,.23,109.30,.04,138.67,.04,21.47,.00,270.00
2016.08.20-06:00,.56,91.10,.89,84.06,1.13,80.55,1.21,74.46,1.12,73.61,1.05,73.29,.94,81.64,.63,88.90,.49,86.37,.23,108.40,.03,141.23,.04,26.16,.00,270.00
2016.08.20-07:00,.51,91.64,.85,83.80,1.12,81.07,1.24,75.53,1.15,73.88,1.09,74.25,.95,82.75,.62,88.82,.50,86.84,.24,105.09,.03,108.98,.06,39.38,.00,90.00
2016.08.20-08:00,.42,94.88,.81,83.02,1.10,81.00,1.26,76.78,1.18,74.21,1.13,75.28,.97,83.38,.62,87.09,.53,86.64,.27,101.00,.05,79.39,.09,48.17,.01,90.00
2016.08.20-09:00,.35,101.38,.77,81.00,1.07,79.90,1.27,77.82,1.20,74.36,1.16,76.19,.98,83.54,.65,84.58,.57,86.00,.31,97.54,.09,68.85,.12,52.64,.02,90.00
2016.08.20-10:00,.32,113.37,.76,78.85,1.06,78.30,1.27,78.63,1.23,74.57,1.19,77.21,.99,83.47,.68,82.21,.60,85.03,.34,95.02,.13,64.45,.16,54.43,.03,90.00
2016.08.20-11:00,.33,115.81,.80,78.61,1.08,77.09,1.28,79.07,1.27,74.77,1.21,78.20,.99,83.04,.71,80.20,.63,83.86,.35,93.75,.16,63.08,.19,55.83,.04,90.00
2016.08.20-12:00,.35,119.43,.84,80.04,1.11,76.26,1.27,78.63,1.28,74.50,1.20,78.55,.96,81.66,.72,78.36,.63,82.56,.35,93.92,.17,63.91,.20,57.67,.04,90.00
2016.08.20-13:00,.35,126.00,.86,81.83,1.12,75.63,1.25,77.45,1.29,74.04,1.17,78.45,.92,79.54,.72,77.28,.63,81.69,.34,95.33,.17,65.13,.20,58.74,.04,90.00
2016.08.20-14:00,.29,132.78,.84,82.03,1.13,74.78,1.24,76.02,1.29,73.94,1.14,78.40,.88,77.46,.70,77.67,.62,82.06,.32,98.27,.15,66.55,.17,58.78,.04,90.00
2016.08.20-15:00,.17,142.74,.80,79.87,1.13,73.82,1.22,74.81,1.28,74.47,1.10,78.48,.85,75.82,.68,79.41,.61,83.77,.29,102.14,.12,68.23,.13,57.89,.03,90.00
2016.08.20-16:00,.09,175.66,.76,76.14,1.13,73.22,1.22,74.08,1.28,75.54,1.07,78.56,.83,74.51,.65,81.84,.59,86.64,.26,106.11,.08,70.05,.10,55.50,.02,90.00
2016.08.20-17:00,.06,252.29,.75,72.18,1.14,73.32,1.23,74.07,1.28,77.03,1.06,78.71,.83,73.67,.62,84.32,.58,90.29,.24,108.91,.06,71.14,.06,49.55,.01,90.00
2016.08.20-18:00,.15,297.64,.75,69.04,1.15,74.08,1.24,74.71,1.28,78.79,1.06,79.07,.86,73.49,.61,86.16,.56,93.92,.23,109.11,.05,69.52,.05,38.63,.00,90.00
2016.08.20-19:00,.25,306.21,.78,66.85,1.15,75.07,1.26,75.65,1.27,80.47,1.07,79.51,.89,73.69,.60,86.56,.56,96.57,.24,106.57,.06,68.12,.05,33.94,.00,90.00
2016.08.20-20:00,.36,310.02,.81,65.32,1.16,75.87,1.27,76.59,1.26,81.73,1.08,79.77,.93,73.92,.60,85.22,.55,97.74,.26,102.89,.08,69.07,.07,38.69,.01,90.00
2016.08.20-21:00,.48,315.39,.85,64.57,1.16,76.36,1.27,77.42,1.25,82.44,1.09,79.73,.97,74.01,.62,82.47,.55,97.22,.28,99.53,.11,70.61,.10,44.19,.01,90.00
2016.08.20-22:00,.57,323.41,.91,65.67,1.16,76.92,1.28,78.09,1.24,82.62,1.10,79.23,1.01,73.84,.64,78.95,.54,95.05,.31,97.29,.15,72.57,.13,48.25,.02,90.00
2016.08.20-23:00,.61,336.66,.97,69.31,1.17,77.92,1.27,78.42,1.22,82.27,1.10,78.16,1.03,73.45,.67,75.64,.54,91.79,.33,96.53,.17,74.98,.16,50.70,.03,90.00
2016.08.20-24:00,.63,353.22,1.04,74.28,1.18,79.23,1.27,78.19,1.21,81.35,1.11,76.69,1.05,73.11,.71,73.61,.53,88.41,.33,96.98,.17,77.61,.17,51.67,.03,90.00
2016.08.21-01:00,.68,7.62,1.09,78.89,1.19,80.43,1.26,77.34,1.19,79.98,1.11,75.15,1.06,73.17,.73,73.50,.53,85.97,.32,98.68,.16,80.97,.17,51.48,.03,90.00
2016.08.21-02:00,.74,17.11,1.08,82.16,1.16,81.27,1.24,76.13,1.15,78.45,1.09,73.98,1.05,73.96,.73,75.22,.53,84.76,.30,101.32,.13,85.97,.16,50.51,.03,90.00
2016.08.21-03:00,.82,25.93,1.03,83.76,1.12,81.56,1.22,75.01,1.12,77.05,1.08,73.49,1.03,75.49,.72,78.24,.52,84.67,.27,104.55,.10,94.71,.13,49.64,.02,90.00
2016.08.21-04:00,.90,31.26,.98,84.19,1.08,81.39,1.22,74.38,1.12,75.95,1.09,73.65,1.01,77.39,.70,81.97,.50,85.81,.25,108.06,.06,110.80,.10,47.33,.02,90.00
2016.08.21-05:00,.96,35.19,.92,84.13,1.05,80.76,1.23,74.21,1.12,74.99,1.10,74.10,1.00,79.09,.67,85.67,.50,88.00,.23,110.85,.04,139.53,.07,42.11,.01,90.00
2016.08.21-06:00,1.02,40.12,.85,83.38,1.03,79.68,1.25,74.50,1.14,74.26,1.12,74.82,.99,80.59,.65,88.56,.49,90.36,.23,111.52,.03,165.40,.05,38.39,.01,90.00
2016.08.21-07:00,1.03,44.19,.80,81.56,1.02,78.58,1.27,75.38,1.15,74.03,1.14,76.07,.99,82.14,.63,90.06,.50,91.90,.24,109.83,.02,155.43,.06,40.12,.01,90.00
2016.08.21-08:00,1.03,46.98,.77,78.06,1.02,77.54,1.29,76.74,1.18,74.41,1.16,77.95,1.01,83.88,.63,90.04,.51,92.27,.26,106.78,.02,74.64,.08,43.54,.01,90.00
2016.08.21-09:00,1.02,48.82,.75,72.30,1.02,76.04,1.29,78.04,1.21,75.01,1.19,80.00,1.03,85.48,.65,88.95,.54,91.77,.29,103.65,.06,56.31,.11,46.00,.02,90.00
2016.08.21-10:00,1.03,51.04,.79,67.35,1.05,74.88,1.31,79.29,1.25,75.85,1.21,82.03,1.05,86.64,.68,87.35,.57,90.69,.32,100.97,.10,52.97,.14,47.14,.03,90.00
2016.08.21-11:00,1.02,55.63,.87,65.58,1.09,74.41,1.32,80.09,1.27,76.34,1.20,83.17,1.03,86.64,.68,84.92,.58,88.73,.33,99.25,.14,56.03,.18,51.12,.04,90.00
2016.08.21-12:00,1.04,62.02,.97,67.40,1.13,75.10,1.32,80.53,1.29,76.54,1.18,83.25,1.00,85.33,.68,82.00,.58,85.98,.34,98.46,.17,60.40,.20,55.65,.05,90.00
2016.08.21-13:00,1.06,68.79,1.05,70.06,1.16,76.09,1.30,80.36,1.29,76.37,1.14,82.19,.96,83.09,.67,79.74,.57,83.54,.33,98.62,.18,63.93,.21,58.57,.05,90.00
2016.08.21-14:00,1.04,75.14,1.08,71.55,1.15,76.50,1.27,79.36,1.28,75.82,1.09,80.35,.92,80.75,.67,79.17,.58,82.56,.31,100.19,.17,67.71,.19,60.39,.05,90.00
2016.08.21-15:00,.99,79.58,1.09,71.66,1.13,76.03,1.23,77.73,1.26,75.23,1.05,78.34,.89,79.04,.66,80.25,.58,83.17,.29,102.96,.15,71.87,.16,60.64,.04,90.00
2016.08.21-16:00,.93,81.81,1.10,71.48,1.11,75.07,1.20,76.13,1.24,74.97,1.01,76.49,.87,78.03,.64,82.20,.57,85.30,.26,106.81,.11,77.77,.12,59.33,.02,90.00
2016.08.21-17:00,.89,82.73,1.11,71.93,1.10,74.29,1.20,75.28,1.23,75.33,1.00,74.96,.84,77.26,.61,84.05,.56,88.74,.24,110.59,.08,84.51,.08,52.81,.01,90.00
2016.08.21-18:00,.83,84.03,1.12,72.98,1.11,74.16,1.21,75.72,1.23,76.51,1.00,74.20,.84,76.79,.58,85.38,.55,93.06,.23,112.85,.06,90.07,.06,37.13,.01,90.00
2016.08.21-19:00,.75,83.73,1.10,73.73,1.12,74.44,1.22,76.97,1.24,78.03,1.03,74.06,.85,76.33,.56,85.15,.54,96.64,.24,112.10,.06,91.71,.06,23.57,.00,90.00
2016.08.21-20:00,.65,80.87,1.07,73.49,1.12,74.75,1.23,78.41,1.24,79.43,1.07,74.52,.89,76.07,.56,83.29,.54,98.50,.25,108.95,.06,89.03,.07,21.30,.00,90.00
2016.08.21-21:00,.56,74.73,1.05,72.62,1.13,75.17,1.24,79.70,1.25,80.63,1.11,75.66,.94,76.41,.60,81.18,.56,98.90,.27,104.92,.08,82.95,.09,26.07,.01,90.00
2016.08.21-22:00,.54,66.64,1.05,72.07,1.13,75.72,1.24,80.18,1.25,81.21,1.15,76.68,.98,76.55,.64,78.94,.56,98.16,.29,101.62,.10,78.66,.13,34.54,.02,90.00
2016.08.21-23:00,.56,63.30,1.09,73.24,1.15,76.94,1.23,79.87,1.25,81.21,1.17,77.19,1.00,76.09,.67,76.55,.55,96.36,.31,99.80,.13,77.28,.17,41.97,.03,90.00
2016.08.21-24:00,.64,66.14,1.15,76.25,1.18,78.95,1.24,79.24,1.26,81.05,1.18,77.40,1.02,75.43,.70,74.71,.53,93.65,.32,99.32,.15,77.13,.20,46.52,.04,90.00
2016.08.22-01:00,.72,70.18,1.21,79.33,1.20,80.69,1.25,78.33,1.26,80.79,1.19,77.38,1.03,74.94,.72,74.25,.52,90.68,.31,100.15,.15,77.81,.21,48.89,.04,90.00
2016.08.22-02:00,.80,70.99,1.25,81.21,1.19,81.38,1.25,77.21,1.24,80.47,1.18,77.26,1.03,74.89,.74,75.39,.51,88.21,.30,102.00,.13,79.31,.21,50.05,.04,90.00
2016.08.22-03:00,.88,68.52,1.25,81.88,1.16,81.11,1.24,76.43,1.21,80.41,1.15,77.40,1.01,75.60,.74,77.99,.50,86.80,.28,104.59,.10,81.40,.18,50.09,.04,90.00
2016.08.22-04:00,.93,66.16,1.24,81.88,1.13,80.19,1.23,76.20,1.18,80.50,1.13,77.72,.99,76.62,.73,81.35,.49,86.67,.25,107.70,.07,84.55,.15,49.33,.03,90.00
2016.08.22-05:00,.95,64.67,1.21,81.80,1.10,78.97,1.23,76.43,1.16,80.43,1.12,77.92,.98,77.40,.70,84.94,.48,87.88,.24,110.62,.04,88.06,.11,47.07,.02,90.00
2016.08.22-06:00,.96,64.10,1.17,82.55,1.07,78.11,1.23,77.22,1.14,80.13,1.11,78.06,.97,78.01,.68,88.27,.48,89.90,.23,112.35,.01,77.43,.08,42.31,.02,90.00
2016.08.22-07:00,.94,65.30,1.12,84.31,1.07,77.95,1.23,78.49,1.13,79.81,1.12,78.50,.98,78.80,.65,90.89,.48,91.91,.23,112.27,.01,25.95,.07,38.24,.01,90.00
2016.08.22-08:00,.91,66.13,1.07,85.44,1.07,77.87,1.24,79.68,1.13,79.50,1.13,79.41,.99,80.03,.62,92.49,.48,93.14,.24,110.42,.03,35.53,.08,39.08,.01,90.00
2016.08.22-09:00,.88,63.98,1.00,84.70,1.08,77.43,1.24,80.52,1.15,79.37,1.15,80.89,1.02,81.85,.62,92.93,.50,93.31,.26,107.47,.07,44.30,.10,41.01,.02,90.00
2016.08.22-10:00,.85,59.45,.94,82.30,1.07,76.66,1.24,80.92,1.16,79.38,1.18,82.59,1.05,83.80,.63,92.08,.53,92.43,.29,104.25,.10,49.79,.13,42.72,.03,90.00
2016.08.22-11:00,.90,57.37,.93,80.27,1.10,76.51,1.25,81.22,1.19,79.72,1.20,84.25,1.07,85.31,.64,90.05,.55,90.90,.31,101.84,.14,53.77,.16,44.47,.03,90.00
2016.08.22-12:00,1.00,59.62,.97,80.17,1.14,77.19,1.27,81.32,1.22,80.04,1.20,85.20,1.06,85.66,.64,86.57,.56,88.57,.32,100.48,.17,58.57,.19,47.72,.04,90.00
2016.08.22-13:00,1.11,63.78,1.02,81.35,1.17,77.86,1.27,80.91,1.22,79.75,1.16,84.89,1.03,84.61,.63,81.96,.55,85.39,.32,100.17,.19,64.79,.21,52.52,.05,90.00
2016.08.22-14:00,1.21,68.01,1.06,82.76,1.18,78.19,1.26,80.21,1.21,79.09,1.12,83.74,.98,82.90,.62,78.11,.55,82.87,.30,100.90,.18,70.57,.21,56.12,.05,90.00
2016.08.22-15:00,1.27,69.73,1.06,82.91,1.18,77.59,1.24,79.31,1.19,78.35,1.07,82.45,.95,81.65,.63,76.82,.56,82.52,.29,102.63,.16,75.53,.18,57.00,.04,90.00
2016.08.22-16:00,1.27,68.17,1.00,80.66,1.13,75.65,1.20,78.20,1.15,77.52,1.03,81.20,.92,81.22,.63,77.80,.56,84.08,.27,105.21,.13,81.15,.14,55.34,.03,90.00
2016.08.22-17:00,1.28,65.84,.96,76.76,1.11,73.61,1.18,77.46,1.14,76.98,1.01,80.16,.90,81.27,.63,79.88,.56,87.33,.25,108.49,.09,87.88,.10,48.99,.02,90.00
2016.08.22-18:00,1.29,71.32,.96,73.34,1.13,73.00,1.18,77.62,1.13,76.99,1.00,79.38,.88,81.45,.60,82.43,.54,92.07,.24,111.50,.07,93.38,.08,34.50,.01,90.00
2016.08.22-19:00,1.28,76.05,.98,71.58,1.16,74.03,1.20,78.62,1.15,77.41,1.00,78.76,.87,81.33,.58,84.27,.52,96.82,.24,113.00,.05,95.17,.07,20.75,.00,90.00
2016.08.22-20:00,1.21,80.67,1.01,70.87,1.18,75.73,1.22,79.88,1.17,77.96,1.03,78.27,.88,80.71,.56,84.12,.51,99.85,.24,112.37,.05,91.98,.08,16.88,.00,90.00
2016.08.22-21:00,1.09,84.16,1.01,70.53,1.18,77.53,1.24,81.25,1.20,78.94,1.07,78.55,.92,80.32,.59,82.53,.52,100.68,.26,110.16,.05,83.33,.10,17.03,.01,90.00
2016.08.22-22:00,.95,85.28,.99,70.00,1.17,78.90,1.25,82.35,1.22,80.12,1.11,79.44,.96,80.16,.63,80.41,.54,99.80,.28,107.51,.07,73.51,.13,21.02,.01,90.00
2016.08.22-23:00,.85,85.19,.99,69.71,1.14,79.44,1.23,82.60,1.23,80.94,1.12,80.10,.98,79.64,.68,78.36,.56,98.30,.30,105.51,.09,68.84,.17,28.27,.02,90.00
2016.08.22-24:00,.82,85.53,1.04,71.72,1.14,79.80,1.23,82.24,1.24,81.50,1.13,80.31,.99,78.82,.71,76.99,.55,96.73,.31,104.14,.12,67.39,.21,35.43,.03,90.00
2016.08.23-01:00,.83,86.58,1.11,75.09,1.17,79.94,1.24,81.49,1.24,81.80,1.12,79.88,.99,77.82,.72,76.58,.53,95.02,.30,103.01,.14,67.85,.24,41.91,.05,90.00
2016.08.23-02:00,.82,85.19,1.16,77.85,1.18,79.62,1.25,80.48,1.24,81.82,1.11,78.76,.99,76.74,.73,77.03,.50,92.80,.29,102.08,.14,69.56,.25,47.89,.05,90.00
2016.08.23-03:00,.79,82.69,1.19,79.73,1.19,79.19,1.25,79.69,1.22,81.82,1.10,77.51,.99,76.24,.74,78.83,.48,90.42,.27,101.71,.13,70.40,.23,52.32,.05,90.00
2016.08.23-04:00,.74,76.85,1.17,80.87,1.18,78.74,1.25,79.34,1.21,81.87,1.10,76.62,1.00,76.61,.74,81.88,.47,88.89,.25,102.28,.10,67.97,.20,54.56,.05,90.00
2016.08.23-05:00,.70,71.04,1.12,81.21,1.16,78.24,1.25,79.41,1.20,81.98,1.12,76.38,1.01,77.73,.74,85.85,.46,88.99,.24,103.85,.07,58.85,.16,54.70,.04,90.00
2016.08.23-06:00,.70,61.90,1.06,80.45,1.14,77.74,1.24,79.76,1.18,82.21,1.13,76.82,1.01,79.25,.72,90.23,.45,90.32,.23,105.63,.05,40.59,.12,52.66,.03,90.00
2016.08.23-07:00,.73,54.80,1.02,80.18,1.13,78.01,1.23,80.57,1.16,82.58,1.13,77.81,1.00,80.83,.68,94.00,.44,91.45,.23,106.61,.05,27.69,.09,48.84,.02,90.00
2016.08.23-08:00,.74,51.36,.98,81.93,1.13,79.46,1.21,81.69,1.13,82.93,1.13,79.09,.98,82.02,.63,95.79,.44,90.86,.24,106.44,.06,29.73,.08,44.29,.02,90.00
2016.08.23-09:00,.76,49.35,.93,84.08,1.13,81.09,1.19,82.63,1.12,83.31,1.14,80.71,.98,82.92,.59,95.42,.45,89.05,.27,105.55,.07,38.83,.08,39.33,.01,90.00
2016.08.23-10:00,.78,45.30,.86,83.40,1.10,81.17,1.18,82.64,1.12,83.36,1.15,82.47,.99,83.85,.58,94.42,.48,88.31,.29,104.75,.10,47.38,.10,35.05,.01,90.00
2016.08.23-11:00,.84,41.00,.81,79.96,1.10,79.95,1.18,81.95,1.13,83.07,1.16,84.13,1.01,84.80,.58,93.42,.52,88.75,.31,104.52,.13,53.14,.13,33.36,.02,90.00
2016.08.23-12:00,.93,40.78,.83,77.05,1.11,78.86,1.20,81.21,1.14,82.63,1.16,85.28,1.01,85.20,.58,91.20,.54,88.56,.32,104.65,.15,58.80,.16,35.68,.02,90.00
2016.08.23-13:00,1.02,44.79,.87,76.38,1.14,78.35,1.21,80.39,1.15,81.78,1.15,85.41,1.00,84.37,.57,86.49,.54,86.60,.31,105.11,.17,65.84,.19,40.78,.03,90.00
2016.08.23-14:00,1.10,52.51,.90,77.59,1.15,78.35,1.23,79.53,1.16,80.58,1.13,84.57,.98,82.62,.57,80.47,.54,84.02,.30,106.02,.17,72.97,.20,45.26,.04,90.00
2016.08.23-15:00,1.16,60.51,.92,79.26,1.16,78.63,1.24,78.91,1.16,79.48,1.11,83.45,.97,80.98,.59,75.99,.54,83.11,.28,107.36,.16,78.98,.19,46.46,.04,90.00
2016.08.23-16:00,1.19,67.14,.93,79.19,1.15,78.44,1.24,78.48,1.16,78.61,1.08,82.41,.96,79.90,.60,74.08,.55,84.53,.26,109.03,.12,84.53,.16,43.78,.03,90.00
2016.08.23-17:00,1.20,72.42,.91,77.22,1.14,77.90,1.24,78.42,1.15,78.12,1.05,81.66,.94,79.44,.61,74.20,.55,87.68,.24,110.99,.08,91.15,.13,37.34,.02,90.00
2016.08.23-18:00,1.18,75.70,.91,74.81,1.13,77.69,1.22,78.90,1.13,78.07,1.02,81.28,.91,79.49,.61,75.72,.55,92.16,.23,112.83,.05,98.69,.11,28.07,.01,90.00
2016.08.23-19:00,1.14,78.15,.93,73.16,1.13,78.05,1.21,79.70,1.12,78.21,1.00,81.15,.90,80.05,.60,78.58,.53,97.65,.22,113.82,.03,98.79,.10,19.34,.01,90.00
2016.08.23-20:00,1.11,81.58,.96,73.17,1.14,79.06,1.21,80.51,1.12,78.23,.99,80.87,.89,80.52,.59,81.18,.51,102.37,.22,113.45,.02,70.71,.11,17.54,.01,90.00
2016.08.23-21:00,1.03,85.79,.97,74.49,1.14,80.61,1.21,81.34,1.13,78.27,1.00,80.59,.90,80.73,.59,81.94,.49,104.42,.23,111.61,.03,49.63,.12,22.22,.01,90.00
2016.08.23-22:00,.90,88.86,.95,75.36,1.13,81.84,1.20,82.00,1.15,78.49,1.02,80.68,.94,81.15,.62,81.43,.49,103.92,.25,109.01,.04,46.91,.13,28.44,.02,90.00
2016.08.23-23:00,.77,89.65,.92,75.34,1.11,82.24,1.20,82.24,1.17,78.87,1.05,81.00,.98,81.72,.66,80.64,.49,102.08,.27,106.24,.07,48.03,.16,34.22,.02,90.00
2016.08.23-24:00,.66,88.12,.91,75.44,1.09,81.76,1.21,81.85,1.20,79.23,1.07,81.01,1.01,81.90,.71,80.12,.49,100.14,.28,103.59,.10,50.54,.18,39.65,.03,90.00
2016.08.24-01:00,.60,88.48,.92,77.26,1.08,80.76,1.22,80.82,1.23,79.32,1.09,80.11,1.02,81.16,.73,79.93,.48,98.53,.29,101.42,.13,53.76,.21,44.76,.04,90.00
2016.08.24-02:00,.59,92.60,.95,80.85,1.09,79.80,1.25,79.63,1.25,79.23,1.09,78.31,1.01,79.58,.74,80.15,.46,96.63,.30,99.92,.14,56.71,.22,49.07,.05,90.00
2016.08.24-03:00,.57,94.52,.99,84.30,1.12,78.99,1.27,78.74,1.26,79.13,1.10,76.14,1.00,77.83,.74,81.01,.43,93.67,.29,99.16,.15,59.40,.22,52.65,.05,90.00
2016.08.24-04:00,.53,90.82,1.00,85.91,1.12,78.14,1.27,78.37,1.25,79.31,1.10,74.44,.99,76.95,.74,83.33,.42,90.26,.28,99.22,.13,60.37,.20,54.33,.04,90.00
2016.08.24-05:00,.48,79.46,.96,85.44,1.11,77.15,1.26,78.50,1.22,79.93,1.10,73.81,.98,77.35,.74,87.05,.42,87.62,.27,100.34,.11,58.89,.17,53.20,.04,90.00
2016.08.24-06:00,.46,62.25,.92,84.09,1.10,76.38,1.24,79.03,1.20,80.77,1.10,74.15,.96,78.45,.71,90.94,.42,85.45,.26,102.64,.09,55.82,.13,49.53,.03,90.00
2016.08.24-07:00,.50,48.61,.91,83.70,1.10,76.52,1.23,79.86,1.18,81.67,1.11,75.22,.95,79.73,.66,94.20,.41,83.40,.26,105.67,.07,52.01,.11,43.06,.02,90.00
2016.08.24-08:00,.55,41.02,.90,85.11,1.12,77.83,1.21,81.11,1.15,82.72,1.11,77.06,.93,81.33,.60,96.63,.41,82.09,.25,108.41,.07,48.10,.10,34.31,.01,90.00
2016.08.24-09:00,.59,35.16,.87,87.46,1.12,79.60,1.20,82.24,1.13,83.35,1.12,79.07,.92,82.66,.55,97.23,.43,81.60,.26,110.26,.07,47.60,.10,28.04,.01,90.00
2016.08.24-10:00,.62,24.60,.77,87.99,1.09,80.18,1.18,82.21,1.11,82.86,1.13,80.60,.94,83.29,.53,96.01,.47,82.99,.27,110.85,.08,49.32,.11,24.37,.01,90.00
2016.08.24-11:00,.71,15.97,.66,85.29,1.06,79.69,1.16,81.27,1.10,81.65,1.15,81.94,.96,83.78,.53,94.22,.52,85.93,.28,110.32,.09,50.69,.13,22.73,.01,90.00
2016.08.24-12:00,.83,17.62,.63,81.26,1.07,79.48,1.18,80.20,1.13,80.35,1.17,83.15,.98,83.97,.52,91.36,.54,88.50,.28,109.31,.11,54.22,.15,25.72,.01,90.00
2016.08.24-13:00,.95,27.28,.67,79.68,1.12,80.17,1.22,79.31,1.16,79.22,1.17,83.88,.97,83.22,.49,85.59,.53,89.49,.28,108.22,.13,60.66,.17,32.48,.02,90.00
2016.08.24-14:00,1.04,39.29,.73,80.32,1.15,81.21,1.24,78.53,1.18,78.21,1.15,83.90,.96,81.27,.48,76.51,.51,88.57,.28,107.28,.14,68.20,.19,39.59,.03,90.00
2016.08.24-15:00,1.12,48.90,.76,80.75,1.16,82.00,1.26,77.90,1.19,77.40,1.12,83.38,.94,78.90,.50,68.62,.50,87.45,.27,107.04,.13,74.79,.18,43.81,.03,90.00
2016.08.24-16:00,1.19,57.25,.76,79.60,1.14,82.45,1.26,77.68,1.19,77.14,1.08,82.80,.93,77.17,.56,65.51,.51,88.13,.26,107.69,.11,79.25,.17,43.72,.03,90.00
2016.08.24-17:00,1.24,67.43,.77,76.93,1.12,82.70,1.25,78.01,1.18,77.59,1.04,82.39,.91,76.42,.60,66.22,.51,90.69,.24,108.99,.08,81.06,.15,40.42,.02,90.00
2016.08.24-18:00,1.23,72.47,.79,74.00,1.10,82.75,1.25,78.68,1.17,78.46,1.01,81.78,.90,76.24,.63,68.79,.50,94.36,.22,110.99,.05,78.77,.13,35.21,.01,90.00
2016.08.24-19:00,1.19,75.59,.83,71.65,1.08,82.42,1.23,79.30,1.16,78.97,.98,80.60,.90,76.14,.65,72.19,.49,98.64,.21,112.98,.02,62.12,.12,29.67,.01,90.00
2016.08.24-20:00,1.14,80.18,.85,71.04,1.05,82.45,1.21,80.16,1.13,79.30,.96,79.36,.89,76.41,.66,76.05,.47,102.90,.21,113.27,.02,24.28,.11,26.02,.01,90.00
2016.08.24-21:00,1.08,86.58,.86,72.34,1.03,83.23,1.19,81.37,1.12,79.66,.95,78.50,.89,77.12,.66,79.26,.45,105.44,.21,111.55,.03,18.32,.11,27.35,.01,90.00
2016.08.24-22:00,.96,91.93,.84,73.51,.99,83.94,1.17,82.44,1.11,79.95,.96,78.25,.91,78.47,.67,81.69,.43,105.45,.22,108.90,.05,25.19,.12,30.88,.01,90.00
2016.08.24-23:00,.82,95.28,.81,73.08,.95,83.59,1.15,82.79,1.12,79.97,.99,78.45,.95,80.27,.70,83.57,.43,103.49,.24,106.37,.07,31.88,.14,33.81,.02,90.00
2016.08.24-24:00,.70,96.34,.81,72.57,.93,82.24,1.14,82.26,1.14,79.74,1.02,78.65,.99,81.87,.73,84.67,.43,100.45,.26,104.26,.09,38.02,.16,36.83,.02,90.00
2016.08.25-01:00,.62,96.95,.84,73.63,.94,80.41,1.16,80.94,1.16,79.31,1.05,78.33,1.01,82.57,.74,85.02,.43,97.24,.28,102.48,.12,44.23,.18,40.62,.03,90.00
2016.08.25-02:00,.56,97.49,.88,76.01,.98,78.43,1.19,79.18,1.19,78.71,1.07,77.15,1.01,82.00,.73,84.83,.41,94.21,.29,100.95,.14,50.88,.20,45.39,.04,90.00
2016.08.25-03:00,.50,91.14,.93,78.22,1.02,76.54,1.23,77.61,1.22,78.25,1.09,75.43,.99,80.39,.71,84.45,.39,90.62,.29,99.64,.16,57.31,.21,50.40,.04,90.00
2016.08.25-04:00,.46,80.18,.96,79.37,1.06,75.16,1.26,76.85,1.24,78.36,1.10,74.04,.97,78.71,.69,84.80,.37,86.23,.29,98.63,.16,62.08,.21,53.96,.04,90.00
2016.08.25-05:00,.44,72.21,.96,79.63,1.07,74.49,1.28,76.98,1.24,79.01,1.12,73.49,.96,77.70,.67,86.32,.37,82.14,.29,98.35,.15,64.82,.19,55.13,.04,90.00
2016.08.25-06:00,.43,55.85,.94,79.56,1.07,74.27,1.27,77.52,1.22,79.61,1.13,73.48,.96,77.17,.66,88.45,.39,79.33,.29,99.40,.12,65.55,.15,52.90,.03,90.00
2016.08.25-07:00,.53,35.46,.94,80.50,1.08,74.67,1.26,78.23,1.20,79.82,1.14,73.76,.95,76.87,.64,90.77,.40,77.72,.28,101.94,.10,63.96,.12,46.10,.02,90.00
2016.08.25-08:00,.67,30.33,.95,83.13,1.09,75.95,1.25,79.20,1.17,79.85,1.14,74.52,.94,77.05,.60,93.08,.42,76.85,.28,105.33,.08,59.52,.10,35.15,.01,90.00
2016.08.25-09:00,.79,30.78,.94,86.95,1.10,77.94,1.22,80.44,1.14,79.93,1.13,75.90,.92,77.98,.56,94.70,.43,76.81,.28,108.78,.07,52.36,.10,23.84,.00,90.00
2016.08.25-10:00,.88,30.55,.89,90.08,1.08,79.63,1.19,81.54,1.11,80.02,1.12,77.82,.92,79.71,.52,95.17,.46,78.24,.27,111.64,.07,45.07,.11,16.92,.00,270.00
2016.08.25-11:00,.98,28.03,.78,90.25,1.04,79.91,1.15,81.79,1.10,79.76,1.12,79.82,.94,81.78,.51,94.45,.50,81.76,.27,113.68,.08,39.30,.13,13.83,.00,270.00
2016.08.25-12:00,1.09,26.41,.67,86.88,1.01,79.24,1.14,81.31,1.10,79.27,1.13,81.72,.96,83.59,.51,92.53,.53,86.30,.27,114.96,.10,37.39,.16,14.87,.00,270.00
2016.08.25-13:00,1.22,29.57,.62,82.04,1.02,78.78,1.14,80.35,1.12,78.61,1.14,83.28,.96,84.53,.49,88.59,.54,90.25,.26,115.34,.11,41.63,.18,21.03,.01,90.00
2016.08.25-14:00,1.31,37.57,.64,80.10,1.06,79.52,1.15,79.28,1.14,78.00,1.13,84.48,.94,84.42,.46,81.43,.51,92.38,.24,113.96,.12,49.89,.20,30.34,.02,90.00
2016.08.25-15:00,1.36,47.62,.67,80.68,1.10,81.04,1.17,78.28,1.16,77.54,1.11,85.21,.91,83.27,.45,72.01,.48,92.45,.23,110.36,.13,59.23,.21,40.06,.03,90.00
2016.08.25-16:00,1.40,57.03,.71,80.62,1.12,82.41,1.20,77.52,1.18,77.35,1.08,85.40,.88,81.41,.48,64.57,.45,92.06,.22,105.71,.12,66.66,.20,47.16,.03,90.00
2016.08.25-17:00,1.43,64.66,.74,78.30,1.13,83.35,1.22,77.53,1.19,77.97,1.04,85.45,.86,79.65,.53,62.06,.44,92.91,.21,101.77,.10,69.94,.18,49.69,.03,90.00
2016.08.25-18:00,1.40,71.02,.75,72.88,1.10,83.35,1.23,78.04,1.19,79.18,1.00,85.27,.84,78.36,.58,63.64,.43,94.99,.21,99.82,.07,68.07,.15,47.84,.02,90.00
2016.08.25-19:00,1.34,73.91,.77,66.77,1.07,82.50,1.23,78.34,1.17,80.13,.96,84.13,.83,76.97,.63,67.10,.43,97.74,.21,100.17,.05,58.60,.12,42.84,.01,90.00
2016.08.25-20:00,1.25,76.67,.80,63.71,1.02,81.70,1.21,78.54,1.15,80.49,.92,81.86,.83,75.26,.66,71.23,.42,100.66,.22,101.79,.03,38.45,.10,35.77,.01,90.00
2016.08.25-21:00,1.18,83.29,.83,63.46,.99,81.22,1.19,79.12,1.12,80.61,.90,79.19,.82,73.81,.67,75.50,.41,103.14,.23,103.42,.04,22.35,.09,29.50,.01,90.00
2016.08.25-22:00,1.07,88.14,.86,64.63,.97,80.88,1.18,80.17,1.10,80.75,.89,76.77,.84,72.99,.67,78.97,.38,103.96,.24,104.91,.05,24.88,.09,29.15,.01,90.00
2016.08.25-23:00,.92,91.24,.88,65.33,.95,80.20,1.17,81.47,1.09,81.05,.91,75.34,.87,73.51,.67,81.93,.36,102.44,.25,106.15,.06,31.52,.10,30.71,.01,90.00
2016.08.25-24:00,.75,92.34,.88,65.46,.93,78.84,1.16,82.48,1.09,81.23,.95,74.77,.92,75.20,.69,84.44,.36,98.99,.27,107.06,.08,36.15,.12,31.47,.01,90.00
2016.08.26-01:00,.63,91.34,.91,66.79,.94,77.28,1.15,82.81,1.09,80.94,.98,74.33,.96,76.91,.70,85.64,.36,94.42,.28,107.68,.10,42.39,.14,35.09,.01,90.00
2016.08.26-02:00,.55,87.97,.97,68.95,.99,75.80,1.17,82.30,1.11,80.11,1.02,73.63,.99,77.99,.68,85.57,.35,89.54,.29,107.74,.12,49.09,.16,40.63,.02,90.00
2016.08.26-03:00,.52,82.78,1.04,71.09,1.06,74.72,1.18,81.32,1.13,79.05,1.06,72.75,1.00,78.16,.67,84.25,.35,84.23,.29,106.79,.14,54.81,.18,46.03,.03,90.00
2016.08.26-04:00,.50,73.69,1.10,72.30,1.11,74.05,1.20,80.45,1.16,78.46,1.10,72.44,1.01,78.06,.66,82.78,.36,79.68,.29,104.84,.15,58.34,.18,49.54,.03,90.00
2016.08.26-05:00,.51,60.16,1.14,72.62,1.15,73.85,1.21,80.22,1.17,78.75,1.13,73.18,1.01,78.37,.66,82.43,.38,77.17,.28,102.36,.14,59.62,.17,50.65,.03,90.00
2016.08.26-06:00,.56,43.89,1.17,73.19,1.17,74.48,1.21,80.78,1.17,79.53,1.15,74.62,1.00,79.01,.65,83.28,.40,76.20,.28,100.45,.13,59.56,.16,49.52,.02,90.00
2016.08.26-07:00,.66,35.02,1.20,75.17,1.19,76.07,1.21,81.60,1.17,79.97,1.16,76.10,.99,79.62,.63,85.28,.41,76.55,.27,100.34,.12,57.48,.14,44.48,.02,90.00
2016.08.26-08:00,.75,32.98,1.23,78.88,1.19,78.26,1.19,82.06,1.15,79.67,1.16,77.24,.96,80.01,.61,88.32,.42,78.08,.27,102.22,.10,52.52,.13,34.39,.01,90.00
2016.08.26-09:00,.81,34.08,1.23,83.71,1.17,80.56,1.15,81.97,1.12,78.83,1.13,78.12,.93,80.25,.58,91.84,.43,80.12,.26,105.33,.09,45.98,.13,22.98,.00,270.00
2016.08.26-10:00,.84,35.40,1.21,88.87,1.13,82.69,1.11,81.59,1.09,78.01,1.10,79.14,.90,80.72,.54,94.97,.44,81.97,.26,108.84,.09,40.56,.13,15.53,.01,270.00
2016.08.26-11:00,.85,32.93,1.14,93.22,1.08,83.96,1.08,80.85,1.07,77.44,1.08,80.50,.89,81.77,.51,96.81,.45,83.69,.25,112.11,.09,37.37,.14,12.76,.01,270.00
2016.08.26-12:00,.89,28.61,1.01,95.41,1.02,83.43,1.05,79.33,1.07,76.95,1.07,82.00,.89,83.37,.48,97.02,.46,86.15,.25,114.93,.09,36.64,.16,13.82,.01,270.00